TimeEDT,TemperatureF,Dew PointF,Humidity,Sea Level PressureIn,VisibilityMPH,Wind Direction,Wind SpeedMPH,Gust SpeedMPH,PrecipitationIn,Events,Conditions,WindDirDegrees,DateUTC
12:53 AM,44.1,39.9,85,30.25,10.0,Variable,4.6,-,N/A,,Clear,0,2013-05-24 04:53:00
1:53 AM,43.0,37.0,80,30.27,10.0,Variable,4.6,-,N/A,,Clear,0,2013-05-24 05:53:00
2:53 AM,42.1,35.1,76,30.28,10.0,Calm,Calm,-,N/A,,Clear,0,2013-05-24 06:53:00
3:53 AM,41.0,35.1,79,30.29,10.0,ENE,4.6,-,N/A,,Clear,70,2013-05-24 07:53:00
4:53 AM,37.9,34.0,86,30.30,10.0,ENE,3.5,-,N/A,,Clear,70,2013-05-24 08:53:00
5:53 AM,39.0,33.1,79,30.31,10.0,Variable,4.6,-,N/A,,Clear,0,2013-05-24 09:53:00
6:53 AM,39.9,34.0,79,30.34,10.0,NE,3.5,-,N/A,,Clear,40,2013-05-24 10:53:00
7:53 AM,43.0,36.0,76,30.37,10.0,Variable,3.5,-,N/A,,Clear,0,2013-05-24 11:53:00
8:53 AM,46.0,36.0,68,30.38,10.0,Variable,3.5,-,N/A,,Clear,0,2013-05-24 12:53:00
9:53 AM,48.9,35.1,59,30.40,10.0,Variable,4.6,-,N/A,,Clear,0,2013-05-24 13:53:00
10:53 AM,48.9,37.0,64,30.41,10.0,WNW,9.2,-,N/A,,Clear,300,2013-05-24 14:53:00
11:53 AM,48.9,39.0,69,30.43,10.0,Variable,5.8,16.1,N/A,,Clear,0,2013-05-24 15:53:00
12:53 PM,48.0,39.0,71,30.44,10.0,NW,9.2,17.3,N/A,,Clear,320,2013-05-24 16:53:00
1:53 PM,48.9,39.0,69,30.43,10.0,NW,8.1,-,N/A,,Clear,310,2013-05-24 17:53:00
2:53 PM,48.9,34.0,56,30.44,10.0,NNW,8.1,18.4,N/A,,Clear,330,2013-05-24 18:53:00
3:53 PM,48.0,34.0,58,30.42,10.0,NW,10.4,16.1,N/A,,Clear,320,2013-05-24 19:53:00
4:53 PM,48.9,35.1,59,30.41,10.0,Variable,6.9,-,N/A,,Clear,0,2013-05-24 20:53:00
5:53 PM,48.9,35.1,59,30.38,10.0,NNW,6.9,-,N/A,,Clear,340,2013-05-24 21:53:00
6:53 PM,48.0,35.1,61,30.35,10.0,Variable,3.5,-,N/A,,Clear,0,2013-05-24 22:53:00
7:53 PM,46.9,35.1,63,30.33,10.0,Calm,Calm,-,N/A,,Clear,0,2013-05-24 23:53:00
8:53 PM,44.1,37.0,76,30.34,10.0,Calm,Calm,-,N/A,,Clear,0,2013-05-25 00:53:00
9:53 PM,42.1,37.0,82,30.37,10.0,WNW,4.6,-,N/A,,Clear,300,2013-05-25 01:53:00
10:53 PM,42.1,37.0,82,30.38,10.0,Calm,Calm,-,N/A,,Clear,0,2013-05-25 02:53:00
11:53 PM,39.0,36.0,89,30.39,10.0,Calm,Calm,-,N/A,,Clear,0,2013-05-25 03:53:00